TIME,DELAY(SENSOR),PRES,OXYGEN,RAWTEMP,T(OPTODE),TCPHASE,FLUOR,BETA(BETA700),BETA(BETA412),BETA(BETA440),CDOM,C(CSC),ED(ED411.90),ED(ED443.80),ED(ED489.40),ED(ED554.70),LU(LU412.20),LU(LU443.80),LU(LU489.40),LU(LU555.00),COMP,TILTX,TILTY,CHECK
1346364278,5806,881.1400146484375000,171.4727935791015600,372.6424865722656000,11.4351100921630860,37.6799201965332000,52,99,98,79,78,13624,2146956864,2147514715,2147281270,2147497883,2147089353,2146935908,2147686902,2147120402,2356,-2,8,6776
1346367874,5805,998.7299804687500000,175.3571014404297000,461.4281921386719000,8.7214260101318360,38.8590698242187500,53,103,99,80,80,13611,2146959149,2147515117,2147288457,2147516662,2147088749,2146930934,2147710537,2147118125,2412,-2,8,31391
1346371474,5809,1025.4300537109375000,185.5886993408203000,479.2564086914062500,8.1716451644897460,38.4631500244140600,52,102,99,80,78,13607,2146957257,2147519835,2147289380,2147519314,2147092553,2146929152,2147711323,2147121307,150,-1,8,57470
1346375074,5807,1028.8499755859375000,189.0953979492187500,480.6081848144531000,8.1298818588256840,38.2555313110351560,52,105,100,78,80,13606,2146957293,2147520338,2147293805,2147520320,2147090660,2146923776,2147711990,2147119716,822,-2,8,46529
1346378674,5806,1035.5400390625000000,189.9577941894531200,482.8048095703125000,8.0619926452636720,38.2372703552246100,52,102,100,79,80,13604,2146956992,2147518994,2147292882,2147521179,2147089910,2146929627,2147714020,2147118793,1377,-2,8,49541
1346382274,5805,1032.8000488281250000,192.0137023925781200,485.7673034667969000,7.9703850746154785,38.1550788879394500,53,105,99,79,79,13602,2146958765,2147517110,2147292507,2147521517,2147089892,2146921846,2147714806,2147115638,419,-1,8,48744
1346385874,5806,1033.7299804687500000,193.2648010253906200,488.2825927734375000,7.8925638198852540,38.1183815002441400,52,103,98,79,79,13603,2146956635,2147517257,2147291062,2147517778,2147089426,2146926774,2147713737,2147121069,2119,-2,8,12507
1346389474,5805,1028.8100585937500000,189.6947937011718800,483.5703125000000000,8.0383272171020500,38.2671012878418000,52,104,100,79,79,13601,2146960786,2147519387,2147292809,2147515245,2147088722,2146927789,2147715035,2147117366,3538,-1,8,14338
1346393074,5807,1031.5699462890625000,188.8719940185547000,482.3082885742187500,8.0773420333862300,38.2988510131835940,52,103,99,80,80,13595,2146961188,2147516580,2147291364,2147519451,2147090669,2146923108,2147714605,2147116772,3000,-2,8,7878
1346396674,5805,1032.3599853515625000,189.8182983398437500,482.5241088867187500,8.0706701278686520,38.2412681579589840,52,102,98,79,79,13593,2146954752,2147518052,2147290358,2147517275,2147093531,2146923648,2147714112,2147121389,3061,-2,8,20617
1346400274,5806,1031.8699951171875000,189.5337982177734400,482.5960083007812500,8.0684480667114260,38.2613487243652340,53,104,100,78,80,13592,2146957037,2147518518,2147293888,2147515090,2147091419,2146931602,2147711789,2147122468,3061,-1,8,13060
1346403874,5805,1014.9199829101562000,183.5677947998047000,474.4270019531250000,8.3207616806030270,38.5156593322753900,53,109,101,78,79,13593,2146957476,2147518756,2147289499,2147515108,2147093110,2146927808,2147712137,2147118262,3254,-2,8,58105
1346407474,5804,1013.8900146484375000,182.9801940917968800,474.4263916015625000,8.3207798004150390,38.5545997619628900,53,103,99,79,80,13591,2146958948,2147515940,2147291163,2147517485,2147093129,2146927040,2147717942,2147119725,3160,-2,8,10898
1346411074,5803,1017.2399902343750000,183.0211944580078000,474.4440002441406000,8.3202371597290040,38.5530891418457000,53,102,99,78,79,13585,2146958765,2147515922,2147291675,2147518464,2147089197,2146929444,2147710893,2147120822,3460,-2,8,6389
1346414674,5809,1013.3599853515625000,183.3838958740234400,474.8547973632812500,8.3075590133667000,38.5355491638183600,52,102,99,77,79,13590,2146958445,2147517156,2147289636,2147518838,2147091200,2146918546,2147712731,2147118473,17,-1,8,900
1346418274,5808,1015.2700195312500000,183.0540924072265600,474.3966979980469000,8.3216972351074220,38.5493011474609400,52,105,99,79,79,13585,2146958144,2147516800,2147290468,2147518555,2147089673,2146922194,2147712448,2147119826,282,-1,8,18860
1346421874,5808,1013.8099975585938000,183.0261993408203000,474.8145141601562500,8.3088026046752930,38.5581588745117200,52,103,100,79,79,13587,2146957942,2147517275,2147290349,2147517129,2147092928,2146928603,2147714340,2147119936,860,-2,8,63661
1346425474,5805,1017.5900268554688000,182.2261962890625000,475.5758972167969000,8.2853012084960940,38.6257591247558600,53,101,101,79,78,13587,2146955776,2147517860,2147289526,2147515867,2147088429,2146922678,2147710957,2147120027,3441,-2,8,12987
1346429074,5806,1018.2500000000000000,182.9313964843750000,474.2803039550781000,8.3252868652343750,38.5563583374023440,52,106,99,80,80,13588,2146959570,2147514038,2147290505,2147516681,2147089234,2146922861,2147715218,2147117942,516,-2,8,62649
1346432674,5804,1015.1300048828125000,183.4631042480468800,475.8503112792969000,8.2768278121948240,38.5466804504394500,52,103,98,79,80,13589,2146957184,2147515620,2147287442,2147518025,2147090230,2146927881,2147713910,2147117385,3548,-2,8,19711
1346436274,5808,1016.5100097656250000,183.6340942382812500,476.5828857421875000,8.2542104721069340,38.5481605529785160,52,112,99,79,80,13583,2146956982,2147515099,2147289892,2147517019,2147092608,2146927798,2147712329,2147120795,50,-1,8,49990
1346439874,5806,1019.9400024414062000,183.9911956787109400,475.4863891601562500,8.2880640029907230,38.5053596496582000,53,110,98,80,80,13583,2146957449,2147516516,2147291099,2147515830,2147090157,2146923446,2147712996,2147120521,488,-2,8,38243
1346443474,5805,1023.0499877929688000,182.5312042236328000,474.8320007324219000,8.3082628250122070,38.5920410156250000,53,103,98,79,79,13586,2146958180,2147516498,2147290176,2147518144,2147088137,2146928146,2147713069,2147117705,3092,-1,8,21342
1346447074,5806,1017.0499877929688000,182.4234008789062500,476.3539123535156000,8.2612829208374020,38.6263313293457000,52,103,100,80,80,13587,2146959030,2147514898,2147290678,2147517860,2147092352,2146930459,2147710473,2147116909,166,-1,8,14709
1346450674,5807,1017.0200195312500000,184.2221984863281200,477.7886047363281000,8.2169828414917000,38.5292205810546900,52,103,98,78,79,13588,2146958473,2147520539,2147294098,2147516781,2147091300,2146931044,2147710317,2147121106,839,-2,8,54711
1346454274,5805,1013.9400024414062000,185.4880981445312500,478.5187988281250000,8.1944303512573240,38.4572792053222660,52,103,99,79,80,13590,2146959369,2147518555,2147291209,2147517092,2147089334,2146927789,2147713170,2147118912,3071,-2,8,59998
1346457874,5805,1018.7600097656250000,185.7254943847656200,478.1611022949219000,8.2054767608642580,38.4350318908691400,53,102,99,79,79,13605,2146957888,2147519323,2147292178,2147520420,2147090422,2146928182,2147711186,2147118281,2910,-2,8,11462
1346461474,5804,1014.8300170898438000,185.6598052978515600,478.4772033691406000,8.1957139968872070,38.4448318481445300,52,103,98,79,80,13612,2146960914,2147518838,2147291529,2147518994,2147088731,2146930843,2147711360,2147120274,226,-2,8,39605
1346465074,5805,1016.9099731445312000,185.6239013671875000,478.3317871093750000,8.2002038955688480,38.4449005126953100,52,105,99,78,79,13608,2146959616,2147515053,2147292050,2147518390,2147088329,2146927469,2147707904,2147116242,200,-2,8,57519
1346468674,5806,1020.2800292968750000,184.9535980224609400,478.1697082519531000,8.2052125930786130,38.4865608215332000,52,108,99,78,79,13604,2146956873,2147515309,2147292644,2147518619,2147087926,2146928338,2147716260,2147118482,3464,-2,8,31556
1346472274,5806,1020.6400146484375000,185.4553985595703000,478.2651977539062500,8.2022638320922850,38.4556007385253900,52,105,100,76,79,13605,2146958427,2147518409,2147291392,2147513901,2147088731,2146928594,2147716882,2147122349,408,-2,8,51345
1346475874,5809,1020.0800170898438000,185.5453033447265600,478.0812072753906000,8.2079458236694340,38.4459190368652340,51,106,99,79,79,13608,2146959460,2147516123,2147290560,2147516900,2147089910,2146928950,2147713481,2147119094,72,-2,8,27790
1346479474,5808,1026.4000244140625000,183.5567016601562500,476.9801025390625000,8.2419490814208980,38.5596389770507800,53,103,99,79,79,13595,2146956461,2147517101,2147294573,2147515218,2147089417,2146923456,2147712822,2147119680,309,-2,8,51474
1346483074,5807,1021.0999755859375000,184.1105957031250000,477.2814941406250000,8.2326421737670900,38.5276718139648440,52,103,98,78,79,13596,2146956726,2147515190,2147292617,2147514066,2147090624,2146932041,2147714925,2147118656,529,-2,8,34797
1346486674,5804,1027.7099609375000000,183.9031982421875000,476.0539855957031000,8.2705402374267580,38.5208396911621100,52,103,99,79,80,13587,2146956278,2147519405,2147290450,2147517074,2147092544,2146930742,2147716086,2147120594,2074,-1,8,5653
1346490274,5805,1019.4299926757812000,183.6134033203125000,479.0589904785156000,8.1777458190917970,38.5913887023925800,53,103,99,79,79,13589,2146954413,2147519862,2147292096,2147516388,2147091766,2146926363,2147713773,2147117659,3263,-2,8,1599
1346493874,5806,1017.0499877929688000,183.1546020507812500,479.3568115234375000,8.1685438156127930,38.6272392272949200,52,105,98,79,80,13584,2146955858,2147519268,2147293997,2147514916,2147090020,2146925897,2147715309,2147121280,77,-2,8,32397
1346497474,5806,1020.9099731445312000,184.2391052246093800,478.4928894042969000,8.1952323913574220,38.5404205322265600,52,100,100,80,80,13586,2146960630,2147517101,2147293760,2147515062,2147088512,2146928109,2147716288,2147120530,288,-2,8,45384
1346501074,5806,1018.5999755859375000,183.1006011962890600,479.2206115722656000,8.1727523803710940,38.6290397644043000,52,104,100,78,80,13586,2146956800,2147517787,2147292434,2147515300,2147089133,2146926409,2147715072,2147117650,561,-2,8,29264
1346504674,5807,1018.2899780273438000,185.2678985595703000,480.3218994140625000,8.1387271881103520,38.5031700134277340,52,102,98,78,79,13583,2146956763,2147518198,2147292169,2147517229,2147087323,2146917650,2147714925,2147117842,271,-2,8,38386
1346506556,5803,1019.2600097656250000,186.5279998779297000,480.4653930664062500,8.1342935562133790,38.4223403930664060,52,104,99,79,79,13580,2146959771,2147517074,2147292214,2147516598,2147088941,2146926948,2147716818,2147118153,3045,-2,8,5462
